METAR Formatted Surface Weather Observation
Issued by NWS

Home | Current Version | Previous Version | Text Only | Print | Product List | Glossary On
Versions: 1
000
SAUS70 KEPZ 191504
MTR5T6

METAR K5T6 191450Z 32006KT 10SM BKN050 OVC200 16/11 A3006 RMK
UNOFFICIAL=


















USA.gov is the U.S. government's official web portal to all federal, state and local government web resources and services.